Miscellaneous Local Product
Issued by NWS Hastings, NE

Home | Current Version | Previous Version | Graphics & Text | Print | Product List | Glossary Off
Versions: 1 2 3 4 5 6 7 8 9 10 11 12 13 14 15 16 17 18 19 20 21 22 23 24 25 26 27 28 29 30 31 32 33 34 35 36 37 38 39 40 41 42 43 44 45 46 47 48 49 50

000
AXUS43 KGID 251602
MISGRI

GID CWA HOURLY WEATHER ROUNDUP
NATIONAL WEATHER SERVICE HASTINGS NE
1100 AM CDT SAT APR 25 2015

NOTE: "FAIR" INDICATES FEW OR NO CLOUDS BELOW 12,000 FEET WITH NO
SIGNIFICANT WEATHER AND/OR OBSTRUCTIONS TO VISIBILITY.

...SOUTH CENTRAL NEBRASKA...

CITY           SKY/WX    TMP DP  RH WIND       PRES   REMARKS
GRAND ISLAND   CLOUDY    50  47  89 NE14      29.66R
HASTINGS       CLOUDY    51  49  92 NE17      29.64R FOG
KEARNEY        CLOUDY    54  50  87 N15       29.66R
ORD            CLOUDY    53  49  86 N14       29.66R
YORK           CLOUDY    50  48  93 N15       29.64R
AURORA         CLOUDY    49  49 100 N15       29.65R
LEXINGTON      MOSUNNY   60  53  76 N10       29.66S
HOLDREGE       PTSUNNY   59  52  76 N16       29.63S
HEBRON         CLOUDY    54  51  90 N13G18    29.60R

...NEBRASKA PANHANDLE...

CITY           SKY/WX    TMP DP  RH WIND       PRES   REMARKS
CHADRON        SUNNY     57  46  66 W3        29.71R
ALLIANCE       SUNNY     59  46  62 VRB6      29.71R
SCOTTSBLUFF    SUNNY     58  32  37 VRB5      29.72S
SIDNEY         SUNNY     60  45  57 N9        29.73R

...WESTERN AND NORTH CENTRAL NEBRASKA...

CITY           SKY/WX    TMP DP  RH WIND       PRES   REMARKS
VALENTINE      CLOUDY    55  48  77 CALM      29.71R
AINSWORTH      CLOUDY    56  50  79 NE10      29.71R
ONEILL         FOG       48  48 100 NE10      29.70R VSB 1/4
BROKEN BOW     PTSUNNY   57  50  77 N12       29.67R
IMPERIAL       SUNNY     60  46  59 N10       29.70R
NORTH PLATTE   NOT AVBL
MCCOOK         SUNNY     63  51  65 NE12      29.68R

...EASTERN NEBRASKA...

CITY           SKY/WX    TMP DP  RH WIND       PRES   REMARKS
NORFOLK        CLOUDY    47  44  90 NE12      29.68R FOG
SO SIOUX CITY  CLOUDY    50  43  77 NE13      29.69R
TEKAMAH        CLOUDY    49  45  86 NE13      29.66R
COLUMBUS       CLOUDY    48  41  76 NE18      29.66R
ALBION         CLOUDY    46  45  93 NE10      29.68R
OMAHA EPPLEY   CLOUDY    49  46  90 NE13      29.63R
OFFUTT AFB     CLOUDY    49  47  92 NE7G18    29.59R
MILLARD        LGT RAIN  48  46  90 NE5       29.60R
LINCOLN        CLOUDY    51  48  89 N14G22    29.63R
NEBRASKA CITY  CLOUDY    51  51 100 NE14      29.56R
BEATRICE       CLOUDY    53  51  92 N8        29.59R
FALLS CITY     CLOUDY    55  54  96 NE13      29.51R FOG

...NORTHERN KANSAS...

CITY           SKY/WX    TMP DP  RH WIND       PRES   REMARKS
GOODLAND       SUNNY     59  45  59 N12       29.72R
HILL CITY      MOSUNNY   63  53  70 N16       29.66R
NORTON         MOSUNNY   61  48  63 N10G17    29.65R
PHILLIPSBURG   MOSUNNY   66  55  68 N18       29.64R
SMITH CENTER   CLOUDY    55  52  88 N10       29.65R
HAYS           MOSUNNY   64  48  55 NW17      29.64R
RUSSELL        SUNNY     66  52  60 NW18      29.61R
CONCORDIA      CLOUDY    56  53  90 N12       29.61R
SALINA         PTSUNNY   63  53  70 NW21      29.59R
TOPEKA         CLOUDY    61  55  81 W13G22    29.46R



USA.gov is the U.S. government's official web portal to all federal, state and local government web resources and services.